[[{"header":{"parameterUnit":"m.s-1","parameterCategory":1,"la1":30.2991,"la2":30.254,"lo1":-89.0895,"lo2":-89.0444,"dy":0.0017,"dx":0.0017,"nx":28,"ny":28,"refTime":"2025-07-26T03:00:00:Z","depth":0,"parameterNumber":2,"parameterNumberName":"U-component_of_WINDS"},"data":[0,0,0,0,0,0,0,0,0,0,0,0,0,0,0,0,0,0,0,0,0,0,0,0,0,0,0,0,0,0,0,0,0,0,0,0,0,0,0,0,0,0,0,0,0,0,0,0,0,0,0,0,0,0,0,0,0,0,-1.1194,-1.1195,0,-1.1286,-1.1287,-1.1288,-1.132,-1.132,-1.1319,-1.1319,-1.1415,-1.1418,-1.1421,0,0,0,0,0,0,0,0,0,0,0,0,0,-1.1051,-1.1054,-1.1194,-1.1195,-1.1197,-1.1285,-1.1287,-1.1288,-1.132,-1.1319,-1.1319,-1.1319,-1.1414,-1.1417,-1.1421,0,0,0,0,0,0,0,0,0,0,0,0,0,-1.1125,-1.1054,-1.1194,-1.1223,-1.1227,-1.1285,-1.1287,-1.1288,-1.132,-1.1319,-1.1319,-1.1318,-1.1413,-1.1417,-1.1421,-1.1458,0,0,-1.1434,-1.1436,0,0,0,0,0,0,0,0,-1.1121,-1.113,-1.1218,-1.1221,-1.1225,-1.1291,-1.1271,-1.1345,-1.132,-1.1285,-1.1319,-1.1318,-1.1374,-1.1382,-1.14,-1.1463,-1.1467,-1.1435,-1.1437,-1.1439,-1.1441,0,0,0,0,0,0,0,-1.1116,-1.1127,-1.1231,-1.1219,-1.1224,-1.1233,-1.1243,-1.1286,-1.1331,-1.1288,-1.129,-1.13,-1.1376,-1.1396,-1.1402,-1.1468,-1.1435,-1.1439,-1.1441,-1.1443,-1.1568,-1.1568,0,0,0,0,0,0,-1.1105,-1.1122,-1.1228,-1.1233,-1.1171,-1.1236,-1.1247,-1.127,-1.1331,-1.134,-1.1301,-1.1302,-1.1389,-1.1397,-1.1406,-1.1454,-1.1439,-1.1443,-1.1446,-1.1567,-1.1568,-1.1569,0,0,0,0,0,0,-1.1102,-1.1114,-1.1224,-1.1178,-1.1193,-1.1239,-1.1265,-1.1272,-1.1292,-1.1341,-1.1349,-1.1312,-1.1389,-1.14,-1.1445,-1.1458,-1.1445,-1.1449,-1.1566,-1.1567,-1.1568,-1.155,0,0,0,0,0,0,-1.1098,-1.1113,-1.1127,-1.1178,-1.1195,-1.1261,-1.1266,-1.1275,-1.1299,-1.1301,-1.1354,-1.1362,-1.1389,-1.1439,-1.1449,-1.1464,-1.1453,-1.1565,-1.1567,-1.1568,-1.155,-1.1551,-1.1551,0,0,0,0,0,-1.1093,-1.1118,-1.1127,-1.114,-1.1213,-1.1261,-1.1271,-1.1301,-1.13,-1.1315,-1.1346,-1.136,-1.1455,-1.1443,-1.1455,-1.1471,-1.1564,-1.1566,-1.1568,-1.155,-1.1551,-1.1551,0,0,0,0,0,0,-1.1068,-1.1126,-1.1136,-1.1179,-1.1215,-1.1266,-1.1286,-1.1301,-1.1338,-1.1338,-1.1375,-1.1386,-1.1429,-1.1455,-1.144,-1.1511,-1.1511,-1.1515,-1.1493,-1.1494,-1.1494,-1.1488,-1.1456,0,0,0,0,0,-1.1067,-1.11,-1.1149,-1.1183,-1.12,-1.124,-1.1262,-1.1282,-1.1321,-1.1336,-1.1371,-1.1409,-1.1447,-1.1472,-1.151,-1.1554,-1.1567,-1.1571,-1.1571,-1.1572,-1.1575,-1.1602,-1.1605,-1.1574,-1.1574,-1.1574,0,0,-1.1067,-1.1102,-1.1121,-1.1179,-1.1209,-1.1244,-1.1252,-1.1289,-1.1315,-1.1342,-1.1387,-1.1414,-1.1459,-1.1504,-1.1525,-1.1526,-1.1586,-1.1574,-1.1574,-1.1577,-1.1604,-1.1606,-1.1609,-1.1575,-1.1575,-1.1575,0,0,-1.1084,-1.1113,-1.1145,-1.1175,-1.122,-1.1246,-1.1254,-1.1303,-1.1322,-1.1367,-1.1389,-1.1421,-1.1486,-1.1517,-1.1542,-1.1571,-1.1586,-1.1583,-1.1586,-1.1611,-1.1614,-1.1616,-1.1628,-1.1631,-1.1586,-1.1586,-1.1586,0,-1.1078,-1.1129,-1.1159,-1.1195,-1.122,-1.1245,-1.1278,-1.1306,-1.1361,-1.1379,-1.1379,-1.1462,-1.1494,-1.1547,-1.1554,-1.1573,-1.1583,-1.1577,-1.1611,-1.1614,-1.1616,-1.1628,-1.1632,-1.1585,-1.1585,-1.1585,-1.1585,0,-1.112,-1.1156,-1.1176,-1.1229,-1.1256,-1.129,-1.1326,-1.1351,-1.1368,-1.1395,-1.1441,-1.1481,-1.1527,-1.1541,-1.1559,-1.1598,-1.1597,-1.1604,-1.1604,-1.1618,-1.1629,-1.1634,-1.1584,-1.1584,-1.1585,-1.1585,0,0,-1.1125,-1.1193,-1.12,-1.1224,-1.1276,-1.1305,-1.134,-1.1385,-1.1406,-1.1444,-1.1475,-1.153,-1.1536,-1.1564,-1.1586,-1.1608,-1.163,-1.1612,-1.1614,-1.1615,-1.1676,-1.1671,-1.1676,-1.164,-1.1641,-1.1641,-1.1673,0,-1.1149,-1.1212,-1.1241,-1.1292,-1.1326,-1.1351,-1.1382,-1.1418,-1.1444,-1.1477,-1.1506,-1.1545,-1.155,-1.1567,-1.159,-1.1622,-1.1643,-1.162,-1.1671,-1.1672,-1.1659,-1.1682,-1.1677,-1.1704,-1.1677,-1.1678,-1.1678,0,-1.1186,-1.1223,-1.1277,-1.1325,-1.1341,-1.1368,-1.1412,-1.1443,-1.1485,-1.1503,-1.1534,-1.1554,-1.1594,-1.1591,-1.1647,-1.1631,-1.1653,-1.1672,-1.1674,-1.1681,-1.1677,-1.169,-1.1714,-1.1718,-1.1686,-1.1685,-1.1684,0,-1.1185,-1.1248,-1.1289,-1.1309,-1.1366,-1.1385,-1.141,-1.1451,-1.1476,-1.1515,-1.1532,-1.1575,-1.1599,-1.1632,-1.1664,-1.1659,-1.1718,-1.1717,-1.1734,-1.1734,-1.1746,-1.1745,-1.1775,-1.1759,-1.1759,-1.1759,-1.1759,0,-1.121,-1.1243,-1.129,-1.1315,-1.1352,-1.1385,-1.1422,-1.1448,-1.1485,-1.1517,-1.1541,-1.157,-1.161,-1.1646,-1.1671,-1.1714,-1.1724,-1.1741,-1.1747,-1.1739,-1.1737,-1.1755,-1.1754,-1.176,-1.176,-1.1759,-1.1759,0,-1.1216,-1.1248,-1.1295,-1.1344,-1.1358,-1.1383,-1.1427,-1.1453,-1.148,-1.152,-1.1531,-1.1574,-1.1617,-1.1652,-1.1708,-1.1725,-1.1771,-1.1778,-1.1756,-1.176,-1.1775,-1.1774,-1.1819,-1.1827,-1.1804,-1.1804,-1.1804,0,-1.123,-1.1255,-1.1308,-1.133,-1.1355,-1.1391,-1.1417,-1.145,-1.1476,-1.1525,-1.1546,-1.159,-1.1627,-1.1694,-1.1731,-1.1775,-1.1784,-1.1796,-1.179,-1.1782,-1.1785,-1.1784,-1.1787,-1.1797,-1.1797,-1.1797,-1.1797,0,-1.1252,-1.1267,-1.1303,-1.1344,-1.1374,-1.1409,-1.1444,-1.1462,-1.1502,-1.153,-1.1574,-1.1602,-1.1659,-1.1703,-1.1751,-1.1778,-1.1795,-1.1799,-1.1805,-1.1798,-1.1785,-1.1793,-1.1759,-1.1798,-1.1798,-1.1798,-1.1798,-1.1798,-1.1264,-1.1288,-1.1328,-1.1368,-1.1397,-1.143,-1.1457,-1.1487,-1.1524,-1.1572,-1.159,-1.1634,-1.1676,-1.1741,-1.1769,-1.1805,-1.1807,-1.1816,-1.1819,-1.1821,-1.182,-1.1778,-1.1814,-1.1814,-1.1814,-1.1814,-1.1814,0,-1.1288,-1.1315,-1.1351,-1.1399,-1.1431,-1.1442,-1.1482,-1.1508,-1.1547,-1.1584,-1.1619,-1.167,-1.1713,-1.1753,-1.1798,-1.182,-1.1829,-1.183,-1.183,-1.1836,-1.1815,-1.1805,-1.1822,-1.1822,-1.1822,-1.1822,-1.1822,-1.1822,-1.1305,-1.1346,-1.1366,-1.1423,-1.1451,-1.1494,-1.1516,-1.1546,-1.1576,-1.1631,-1.1666,-1.1691,-1.173,-1.1778,-1.1819,-1.183,-1.1846,-1.1846,-1.1859,-1.1839,-1.1837,-1.1836,-1.1827,-1.1848,-1.1849,-1.1877,-1.1877,-1.1877]},{"header":{"parameterUnit":"m.s-1","parameterCategory":1,"la1":30.2991,"la2":30.254,"lo1":-89.0895,"lo2":-89.0444,"dy":0.0017,"dx":0.0017,"nx":28,"ny":28,"refTime":"2025-07-26T03:00:00:Z","depth":0,"parameterNumber":3,"parameterNumberName":"V-component_of_WINDS"},"data":[0,0,0,0,0,0,0,0,0,0,0,0,0,0,0,0,0,0,0,0,0,0,0,0,0,0,0,0,0,0,0,0,0,0,0,0,0,0,0,0,0,0,0,0,0,0,0,0,0,0,0,0,0,0,0,0,0,0,4.5159,4.516,0,4.5293,4.5295,4.5296,4.5265,4.5262,4.526,4.5257,4.539,4.5395,4.5401,0,0,0,0,0,0,0,0,0,0,0,0,0,4.4869,4.4875,4.5159,4.5161,4.5162,4.5293,4.5295,4.5297,4.5265,4.5262,4.5259,4.5256,4.5388,4.5395,4.5402,0,0,0,0,0,0,0,0,0,0,0,0,0,4.4998,4.4876,4.5159,4.5163,4.5164,4.5293,4.5295,4.5297,4.5266,4.5262,4.5258,4.5255,4.5385,4.5394,4.5403,4.5534,0,0,4.543,4.5433,0,0,0,0,0,0,0,0,4.4991,4.5009,4.516,4.5163,4.5165,4.5259,4.5241,4.5376,4.5267,4.5227,4.5257,4.5253,4.5349,4.536,4.5394,4.554,4.5545,4.543,4.5436,4.544,4.5442,0,0,0,0,0,0,0,4.4982,4.5003,4.5212,4.5162,4.5165,4.5155,4.517,4.5266,4.5308,4.523,4.5228,4.5245,4.5349,4.5385,4.5397,4.5547,4.543,4.5438,4.5443,4.5447,4.5804,4.5808,0,0,0,0,0,0,4.4972,4.4996,4.5208,4.5216,4.5067,4.5164,4.518,4.5232,4.5306,4.5314,4.5248,4.5243,4.5372,4.5386,4.5401,4.5557,4.544,4.5448,4.5453,4.58,4.5805,4.581,0,0,0,0,0,0,4.4966,4.4991,4.5202,4.5105,4.5131,4.5173,4.5232,4.5237,4.5273,4.532,4.5327,4.5278,4.537,4.5389,4.5501,4.5561,4.5452,4.546,4.5795,4.5802,4.5808,4.5872,0,0,0,0,0,0,4.4958,4.4989,4.5041,4.5107,4.5137,4.5302,4.5236,4.5242,4.5289,4.5284,4.535,4.5357,4.5368,4.5488,4.5509,4.5572,4.5467,4.579,4.5798,4.5806,4.5865,4.588,4.5893,0,0,0,0,0,4.4948,4.5054,4.5044,4.507,4.5203,4.5305,4.5322,4.5334,4.5294,4.5345,4.5375,4.5355,4.5552,4.5499,4.5524,4.5589,4.5786,4.5796,4.5805,4.5858,4.5877,4.5892,0,0,0,0,0,0,4.4993,4.5062,4.5052,4.5183,4.5239,4.53,4.5365,4.5354,4.5421,4.5413,4.5423,4.5438,4.5552,4.5582,4.5523,4.5718,4.5663,4.5677,4.5695,4.5713,4.5727,4.5716,4.5474,0,0,0,0,0,4.5018,4.5098,4.5153,4.5263,4.5291,4.5324,4.5369,4.5373,4.543,4.5453,4.5491,4.5546,4.562,4.5668,4.5739,4.5869,4.5881,4.5926,4.594,4.5951,4.5963,4.6032,4.6051,4.5841,4.5841,4.5841,0,0,4.5071,4.5119,4.5168,4.5273,4.5317,4.5396,4.5343,4.543,4.5489,4.5466,4.5574,4.5604,4.5665,4.5786,4.5841,4.5814,4.6024,4.5963,4.5972,4.5978,4.6043,4.6063,4.6081,4.5847,4.5846,4.5845,0,0,4.5208,4.5253,4.5348,4.5393,4.546,4.548,4.5503,4.5566,4.5585,4.5694,4.5678,4.5746,4.5874,4.5918,4.5956,4.6108,4.6091,4.613,4.6203,4.627,4.6286,4.6301,4.6352,4.6371,4.6142,4.6143,4.6143,0,4.5264,4.5386,4.5398,4.5487,4.5532,4.5516,4.5611,4.5653,4.5739,4.577,4.5739,4.5898,4.5938,4.6068,4.6104,4.6137,4.6162,4.6122,4.6283,4.6298,4.6312,4.6361,4.6381,4.6147,4.6146,4.6146,4.6146,0,4.5451,4.5535,4.5603,4.5688,4.5741,4.5832,4.5856,4.5908,4.5908,4.593,4.604,4.6088,4.6167,4.6198,4.6198,4.6327,4.6308,4.6281,4.6224,4.6336,4.6382,4.6401,4.6153,4.6151,4.615,4.6149,0,0,4.562,4.5709,4.5734,4.5771,4.5843,4.5907,4.5996,4.6075,4.6118,4.6177,4.625,4.6358,4.6332,4.6376,4.6381,4.644,4.6553,4.6404,4.6406,4.6428,4.6695,4.6715,4.6737,4.6543,4.6547,4.655,4.669,0,4.5761,4.592,4.5933,4.6075,4.6151,4.6137,4.6214,4.6265,4.6288,4.6354,4.6379,4.6455,4.6416,4.6442,4.65,4.6528,4.6607,4.6518,4.6608,4.6612,4.6592,4.6761,4.6783,4.6913,4.6708,4.6711,4.6713,0,4.5948,4.6014,4.6164,4.6223,4.6255,4.6325,4.6396,4.6461,4.6517,4.6529,4.6578,4.6575,4.6663,4.6605,4.6726,4.6665,4.6702,4.6722,4.6727,4.6734,4.6668,4.6772,4.6955,4.6973,4.6742,4.674,4.6738,0,4.6054,4.6179,4.6285,4.6317,4.6389,4.6438,4.647,4.6523,4.6568,4.663,4.666,4.6731,4.6769,4.6824,4.6838,4.6795,4.6958,4.6901,4.6968,4.6968,4.7002,4.7,4.7192,4.703,4.7029,4.7029,4.7029,0,4.621,4.6301,4.6333,4.6398,4.6499,4.6512,4.6611,4.664,4.6687,4.6755,4.6746,4.6809,4.6826,4.6891,4.6903,4.7,4.7018,4.7029,4.703,4.7029,4.7027,4.7053,4.7043,4.7034,4.7033,4.7032,4.7031,0,4.6345,4.637,4.6483,4.6542,4.6559,4.6631,4.668,4.6741,4.6762,4.6848,4.6869,4.6903,4.6979,4.7,4.7091,4.7099,4.7213,4.7207,4.7194,4.7193,4.7259,4.7252,4.7473,4.7502,4.7322,4.7324,4.7325,0,4.6442,4.6512,4.6578,4.6624,4.6658,4.6732,4.6778,4.6793,4.6841,4.691,4.6961,4.7038,4.7099,4.7222,4.7253,4.7323,4.7317,4.739,4.7327,4.7323,4.7316,4.7311,4.7317,4.7401,4.7403,4.7405,4.7406,0,4.6611,4.6619,4.6688,4.676,4.6816,4.6873,4.6928,4.6965,4.6987,4.7041,4.7121,4.7168,4.7262,4.7336,4.7406,4.7436,4.7424,4.7425,4.7444,4.7443,4.7432,4.7436,4.7224,4.742,4.7419,4.7418,4.7417,4.7416,4.6729,4.6789,4.6845,4.692,4.6963,4.7014,4.7074,4.7103,4.717,4.7248,4.7252,4.7337,4.7389,4.7482,4.7516,4.7581,4.7559,4.7587,4.7593,4.76,4.7604,4.7423,4.7594,4.7593,4.7593,4.7593,4.7593,0,4.6895,4.693,4.7,4.7077,4.7135,4.712,4.7179,4.7229,4.7304,4.7355,4.7416,4.7505,4.7577,4.7613,4.7684,4.7729,4.7725,4.7747,4.7743,4.775,4.7621,4.7597,4.7749,4.7749,4.7749,4.7749,4.7749,4.7749,4.6989,4.709,4.7105,4.7226,4.726,4.7345,4.7379,4.7425,4.7465,4.7566,4.7626,4.765,4.7694,4.7767,4.7832,4.784,4.7866,4.789,4.7896,4.7775,4.7759,4.7744,4.7721,4.7896,4.7897,4.8019,4.802,4.8021]}]]